FW1784 Weather Reports


Display with metric or nautical units.
time (UTC)temp
F
wind
direction
speed
MPH
gust
MPH
rain 1hr
in
rain 24hr
in
rain mn
in
humidity
%
barometer
mb
20260506234607 57 23 0.0 0.0 0.01 0.46 0.46 96 1005.6
20260506233102 58 68 0.0 2.0 0.01 0.46 0.46 96 1005.6
20260506231503 60 232 0.0 13.0 0.00 0.45 0.45 98 1005.3
20260506230107 60 173 0.0 0.0 0.00 0.45 0.45 98 1004.9
20260506224608 61 173 0.0 0.0 0.00 0.45 0.45 98 1004.7
20260506223002 61 202 0.0 0.0 0.00 0.45 0.45 98 1004.4
20260506221503 61 202 0.0 1.0 0.00 0.45 0.45 98 1004.4
20260506220104 60 170 0.0 1.0 0.00 0.45 0.45 98 1004.2
20260506214520 60 161 0.0 3.0 0.00 0.45 0.45 98 1004.1
20260506213002 60 199 0.0 0.0 0.01 0.45 0.45 98 1004.0
20260506211603 60 214 0.0 2.0 0.01 0.45 0.45 98 1003.9
20260506204621 60 171 0.0 7.0 0.01 0.45 0.45 97 1003.9
20260506203023 60 201 0.0 6.0 0.00 0.44 0.44 97 1003.9
20260506201503 60 232 0.0 7.0 0.00 0.44 0.44 97 1003.9
20260506200105 60 194 0.0 5.0 0.01 0.44 0.44 97 1004.1
20260506194602 60 232 1.0 5.0 0.01 0.44 0.44 97 1004.1
20260506193002 61 223 1.0 8.0 0.01 0.44 0.44 97 1004.3
20260506191603 61 211 0.0 7.0 0.01 0.44 0.44 98 1004.4
20260506184602 60 232 1.0 7.0 0.01 0.43 0.43 97 1004.6
20260506183003 60 191 1.0 12.0 0.02 0.43 0.43 97 1004.8
20260506181502 60 203 3.0 10.0 0.05 0.43 0.43 97 1004.9
20260506180107 60 274 1.0 9.0 0.07 0.43 0.43 97 1005.1
20260506174603 60 210 0.0 2.0 0.08 0.42 0.42 97 1005.0
20260506173003 60 280 0.0 5.0 0.09 0.41 0.41 97 1005.0
20260506171624 60 245 0.0 4.0 0.10 0.38 0.38 97 1005.0
20260506170005 60 243 0.0 2.0 0.11 0.36 0.36 97 1005.3
20260506164521 60 243 0.0 2.0 0.11 0.34 0.34 97 1005.2
20260506163002 60 234 0.0 3.0 0.12 0.32 0.32 96 1005.7
20260506161642 60 213 1.0 4.0 0.11 0.28 0.28 96 1006.1
20260506160003 60 207 0.0 3.0 0.12 0.25 0.25 96 1006.3
20260506154503 60 155 0.0 1.0 0.13 0.23 0.23 96 1006.3
20260506153003 60 238 0.0 7.0 0.13 0.20 0.20 96 1006.3
20260506151604 60 211 0.0 4.0 0.11 0.17 0.17 95 1006.4
20260506150002 60 236 0.0 5.0 0.09 0.13 0.13 95 1006.6
20260506144504 60 212 0.0 3.0 0.09 0.10 0.10 95 1006.7
20260506143101 61 169 0.0 4.0 0.08 0.08 0.08 94 1006.6
20260506141602 61 263 0.0 2.0 0.06 0.06 0.06 93 1006.8
20260506140002 61 273 0.0 0.0 0.04 0.04 0.04 91 1006.8
20260506134504 62 213 1.0 4.0 0.01 0.01 0.01 87 1006.9
20260506133103 64 156 0.0 3.0 0.00 0.00 0.00 84 1006.5
20260506131505 64 247 2.0 7.0 0.00 0.00 0.00 82 1006.3
20260506130002 64 259 2.0 8.0 0.00 0.00 0.00 82 1006.2
20260506124503 64 255 1.0 9.0 0.00 0.00 0.00 81 1006.3
20260506121503 63 248 2.0 7.0 0.00 0.00 0.00 80 1006.7
20260506120110 63 231 2.0 5.0 0.00 0.00 0.00 80 1006.7
20260506114601 63 173 0.0 6.0 0.00 0.00 0.00 81 1006.8
20260506113005 62 255 1.0 4.0 0.00 0.00 0.00 81 1006.7
20260506111602 62 225 0.0 2.0 0.00 0.00 0.00 80 1006.5
20260506110106 61 216 0.0 3.0 0.00 0.00 0.00 80 1006.4
20260506104601 61 224 0.0 3.0 0.00 0.00 0.00 80 1006.4
20260506103021 61 273 0.0 0.0 0.00 0.00 0.00 79 1006.4
20260506101504 61 273 0.0 0.0 0.00 0.00 0.00 78 1006.2
20260506100121 61 273 0.0 2.0 0.00 0.00 0.00 77 1006.2
20260506094507 61 273 1.0 4.0 0.00 0.00 0.00 76 1006.3
20260506093105 61 228 0.0 4.0 0.00 0.00 0.00 77 1006.4
20260506091504 60 285 1.0 4.0 0.00 0.00 0.00 76 1006.2
20260506084624 60 223 0.0 3.0 0.00 0.00 0.00 77 1006.4
20260506083104 59 210 0.0 0.0 0.00 0.00 0.00 77 1006.4
20260506081502 60 210 0.0 0.0 0.00 0.00 0.00 75 1006.7
20260506073003 62 210 0.0 0.0 0.00 0.00 0.00 71 1006.6
20260506071502 63 210 0.0 0.0 0.00 0.00 0.00 69 1006.6
20260506061503 65 247 1.0 6.0 0.00 0.00 0.00 63 1007.2
20260506050104 67 165 0.0 5.0 0.00 0.00 0.00 61 1007.4
20260506044712 67 221 0.0 5.0 0.00 0.00 0.00 58 1007.5
20260506043110 67 200 1.0 5.0 0.00 0.00 0.00 59 1007.3
20260506041519 67 228 1.0 4.0 0.00 0.00 0.00 57 1007.3
20260506040002 68 238 0.0 2.0 0.00 0.00 0.00 56 1007.3
20260506034502 68 224 1.0 6.0 0.00 0.00 0.00 56 1007.1
20260506033002 68 254 1.0 8.0 0.00 0.00 0.00 55 1007.1
20260506031606 68 229 1.0 8.0 0.00 0.00 0.00 55 1007.1
20260506030003 69 172 0.0 3.0 0.00 0.00 0.00 54 1007.2
20260506024502 70 229 0.0 2.0 0.00 0.00 0.00 50 1007.3
20260506023113 70 227 1.0 6.0 0.00 0.00 0.00 50 1007.3
20260506021502 70 248 1.0 4.0 0.00 0.00 0.00 53 1007.2
20260506014603 70 252 0.0 4.0 0.00 0.00 0.00 56 1007.0
20260506013002 70 251 2.0 7.0 0.00 0.00 0.00 55 1006.9
20260506011626 71 261 1.0 4.0 0.00 0.00 0.00 52 1006.7
20260506010005 72 275 0.0 4.0 0.00 0.00 0.00 50 1006.6
20260506004503 72 236 0.0 3.0 0.00 0.00 0.00 49 1006.5
20260506003113 72 226 0.0 8.0 0.00 0.00 0.00 47 1006.4
20260506001502 73 250 1.0 9.0 0.00 0.00 0.00 48 1006.1